Location: Kershaw
(34.5481°N, 80.5823°W)
Time: 11:20:57
(UTC+00:00)

Altair - Pass Details

Date: 08 October 2022
Orbit: 1501 x 1682 km, 47.2° (Epoch: 30 November)

Event Time Altitude Azimuth Distance (km) Brightness Sun altitude
Rises 16:39:52 0° 300° (WNW) 4,915 9.9 48.8°
Reaches altitude 10° 16:43:18 10° 293° (WNW) 3,936 9.5 48.9°
Maximum altitude 16:52:17 38° 230° (SW) 2,385 9.4 49.2°
Drops below altitude 10° 17:01:14 10° 167° (SSE) 3,910 10.5 49.3°
Sets 17:04:41 0° 159° (SSE) 4,879 10.7 49.4°
